Regional Weather Roundup
Issued by NWS

Home | Current Version | Previous Version | Graphics & Text | Print | Product List | Glossary On
Versions: 1 2 3 4 5 6 7 8 9 10 11 12 13 14 15 16 17 18 19 20 21 22 23 24 25 26 27 28 29 30 31 32 33 34 35 36 37 38 39 40 41 42 43 44 45 46 47 48 49 50
000
ASUS43 KFSD 151502
RWRSD

WEATHER ROUNDUP FOR SOUTH DAKOTA
NATIONAL WEATHER SERVICE SIOUX FALLS SD
1000 AM CDT TUE APR 15 2014

NOTE: "FAIR" INDICATES FEW OR NO CLOUDS BELOW 12,000 FEET WITH NO
SIGNIFICANT WEATHER AND/OR OBSTRUCTIONS TO VISIBILITY.


SDZ001>005-009-010-012>017-151600-
NORTHWEST AND NORTH CENTRAL SOUTH DAKOTA

CITY           SKY/WX    TMP DP  RH WIND       PRES   REMARKS
BUFFALO          N/A     32  17  54 S13       29.67F WCI  22
FAITH            N/A     29  16  58 SE18      29.79F WCI  16
MOBRIDGE       MOSUNNY   30  16  56 SE22      29.91F WCI  17
$$

SDZ012>016-024>037-041>051-057-063-072>074-151600-
SOUTHWEST AND SOUTH CENTRAL SOUTH DAKOTA

CITY           SKY/WX    TMP DP  RH WIND       PRES   REMARKS
RAPID CTY ARPT MOSUNNY   37  22  54 SE3       29.76F
PIERRE         SUNNY     32  20  61 SE21      29.91F WCI  20
CUSTER         PTSUNNY   40  16  37 W8        29.79S
ELLSWORTH AFB  MOSUNNY   41  20  43 S7        29.75F
PHILIP         PTSUNNY   37  20  50 SE9       29.83F
PINE RIDGE     PTSUNNY   43  24  47 S10       29.82F
WINNER         FAIR      39  17  41 S18G26    29.93F
$$

SDZ004>011-016>023-039-040-151600-
NORTHEAST SOUTH DAKOTA

CITY           SKY/WX    TMP DP  RH WIND       PRES   REMARKS
ABERDEEN       SUNNY     27  13  55 S13       30.08F WCI  16
WATERTOWN      SUNNY     24  15  68 S9        30.09F WCI  14
SISSETON         N/A     22  15  75 S7        30.14F WCI  13
$$

SDZ017-020-022-023-036>040-048>070-151600-
SOUTHEAST SOUTH DAKOTA

CITY           SKY/WX    TMP DP  RH WIND       PRES   REMARKS
SIOUX FALLS    SUNNY     28  13  53 SE7       30.14F WCI  21
HURON          SUNNY     29  18  63 S13G21    30.08F WCI  19
CHAMBERLAIN      N/A     34  19  54 SE18G26   29.99F WCI  23
MITCHELL       SUNNY     30  22  72 SE16      30.10F WCI  19
YANKTON        SUNNY     30  19  64 SE13      30.14F WCI  20
$$

ABBREVIATIONS USED IN REMARKS
   TC - TEMPERATURE IN CELSIUS
  WCI - WIND CHILL INDEX
   HX - HEAT INDEX
  VSB - VISIBILITY




USA.gov is the U.S. government's official web portal to all federal, state and local government web resources and services.